Location: Unspecified
(42.3650°N, 71.1030°W)
Time: 10:19:03
(UTC+00:00)

YUBILEINY - Visible Passes

Search period start: 24 July 2024 00:00
Search period end: 03 August 2024 00:00
Orbit: 1477 x 1509 km, 82.5° (Epoch: 23 July)

Date Brightness Start Highest point End Pass type
(mag) Time Alt. Az. Time Alt. Az. Time Alt. Az.
24 Jul ? 00:53:14 10° NNW 01:01:53 65° W 01:10:32 10° S visible
24 Jul ? 02:54:32 10° WNW 02:56:47 11° WNW 02:59:03 10° W visible
25 Jul ? 02:01:43 10° NNW 02:08:10 24° W 02:14:37 10° SW visible
26 Jul ? 01:11:05 10° NNW 01:19:10 43° W 01:27:16 10° SSW visible
27 Jul ? 02:20:52 10° NW 02:25:02 14° WNW 02:29:12 10° WSW visible
28 Jul ? 01:29:13 10° NNW 01:36:17 28° W 01:43:23 10° SW visible
29 Jul ? 00:38:48 10° NNW 00:47:11 51° W 00:55:35 10° SSW visible
30 Jul ? 01:47:54 10° NW 01:53:14 18° WNW 01:58:35 10° WSW visible
31 Jul ? 00:56:48 10° NNW 01:04:23 34° W 01:11:58 10° SW visible
01 Aug ? 02:09:06 10° WNW 02:10:00 10° WNW 02:10:54 10° WNW visible
02 Aug ? 01:15:12 10° NNW 01:21:24 22° WNW 01:27:38 10° SW visible
